N42J KDAB-KJAX

Flight info

Callsign N42J
Flight time 0h 28m
Altitude 6500
Route KDAB/07L N0284F160 DCT IJAYU DCT LIBBY DCT DINNS DCT KJAX/08
Aircraft PC12/L-V/N

Departure

Time 2026-04-15 23:55
Airport Daytona Beach International Airport (KDAB)

Arrival

Time 2026-04-16 00:24
Airport Jacksonville International Airport (KJAX)
Time Latitude Longitude Altitude Speed Heading
2026-04-15 23:44 29.18549 -81.05142 31 ft 0 kts 62°
2026-04-15 23:46 29.17760 -81.05864 31 ft 0 kts 65°
2026-04-15 23:50 29.17761 -81.05862 31 ft 2 kts 50°
2026-04-15 23:50 29.17818 -81.05881 31 ft 15 kts 311°
2026-04-15 23:50 29.17838 -81.06008 29 ft 20 kts 245°
2026-04-15 23:51 29.17687 -81.06330 29 ft 16 kts 264°
2026-04-15 23:51 29.17653 -81.06464 29 ft 21 kts 246°
2026-04-15 23:51 29.17578 -81.06652 29 ft 29 kts 243°
2026-04-15 23:51 29.17516 -81.06838 29 ft 24 kts 283°
2026-04-15 23:52 29.17539 -81.06869 29 ft 0 kts 336°
2026-04-15 23:54 29.17555 -81.06877 29 ft 8 kts 336°
2026-04-15 23:54 29.17626 -81.06876 29 ft 13 kts 72°
2026-04-15 23:54 29.17716 -81.06647 29 ft 67 kts 63°
2026-04-15 23:55 29.18006 -81.05942 73 ft 119 kts 62°
2026-04-15 23:55 29.18396 -81.05065 456 ft 128 kts 58°
2026-04-15 23:55 29.18860 -81.04165 911 ft 137 kts 56°
2026-04-15 23:55 29.19668 -81.03461 1015 ft 176 kts 17°
2026-04-15 23:56 29.20902 -81.03744 1341 ft 191 kts 324°
2026-04-15 23:56 29.21694 -81.04971 1732 ft 198 kts 296°
2026-04-15 23:56 29.22348 -81.06413 2075 ft 205 kts 297°
2026-04-15 23:56 29.23014 -81.07867 2409 ft 211 kts 298°
2026-04-15 23:57 29.23809 -81.09297 2736 ft 215 kts 307°
2026-04-15 23:57 29.24779 -81.10610 3062 ft 218 kts 314°
2026-04-15 23:57 29.25875 -81.11820 3392 ft 219 kts 318°
2026-04-15 23:57 29.27045 -81.12947 3722 ft 221 kts 322°
2026-04-15 23:58 29.28281 -81.14020 4056 ft 222 kts 324°
2026-04-15 23:58 29.29547 -81.15044 4389 ft 224 kts 325°
2026-04-15 23:58 29.30827 -81.16032 4720 ft 225 kts 327°
2026-04-15 23:58 29.32149 -81.17020 5056 ft 226 kts 327°
2026-04-15 23:59 29.33475 -81.17987 5389 ft 227 kts 328°
2026-04-15 23:59 29.34825 -81.18959 5725 ft 229 kts 328°
2026-04-15 23:59 29.36173 -81.19920 6060 ft 230 kts 329°
2026-04-15 23:59 29.37536 -81.20883 6395 ft 231 kts 329°
2026-04-16 00:00 29.38905 -81.21849 6728 ft 232 kts 329°
2026-04-16 00:00 29.40296 -81.22826 7066 ft 232 kts 329°
2026-04-16 00:00 29.41660 -81.23783 7394 ft 233 kts 329°
2026-04-16 00:00 29.43064 -81.24769 7624 ft 239 kts 329°
2026-04-16 00:01 29.44527 -81.25792 7668 ft 251 kts 328°
2026-04-16 00:01 29.46052 -81.26856 7674 ft 262 kts 328°
2026-04-16 00:01 29.47627 -81.27957 7672 ft 270 kts 328°
2026-04-16 00:01 29.49264 -81.29105 7673 ft 275 kts 328°
2026-04-16 00:02 29.50892 -81.30246 7668 ft 280 kts 329°
2026-04-16 00:02 29.52568 -81.31422 7664 ft 283 kts 328°
2026-04-16 00:02 29.54249 -81.32600 7669 ft 284 kts 329°
2026-04-16 00:02 29.55960 -81.33798 7670 ft 285 kts 328°
2026-04-16 00:03 29.57647 -81.34984 7673 ft 286 kts 328°
2026-04-16 00:03 29.59367 -81.36192 7688 ft 287 kts 328°
2026-04-16 00:03 29.61076 -81.37392 7674 ft 289 kts 328°
2026-04-16 00:03 29.62782 -81.38591 7663 ft 288 kts 328°
2026-04-16 00:04 29.64521 -81.39815 7672 ft 289 kts 328°
2026-04-16 00:04 29.66237 -81.41021 7669 ft 288 kts 328°
2026-04-16 00:04 29.67934 -81.42218 7674 ft 289 kts 328°
2026-04-16 00:04 29.69660 -81.43434 7673 ft 289 kts 328°
2026-04-16 00:05 29.71375 -81.44643 7669 ft 288 kts 328°
2026-04-16 00:05 29.73076 -81.45842 7673 ft 289 kts 328°
2026-04-16 00:05 29.74803 -81.47060 7664 ft 289 kts 328°
2026-04-16 00:05 29.76504 -81.48261 7659 ft 289 kts 328°
2026-04-16 00:06 29.78221 -81.49471 7654 ft 289 kts 328°
2026-04-16 00:06 29.79942 -81.50687 7665 ft 289 kts 328°
2026-04-16 00:06 29.81649 -81.51892 7671 ft 288 kts 328°
2026-04-16 00:06 29.83363 -81.53104 7679 ft 288 kts 328°
2026-04-16 00:07 29.85067 -81.54310 7666 ft 288 kts 328°
2026-04-16 00:07 29.86773 -81.55514 7657 ft 282 kts 329°
2026-04-16 00:07 29.88408 -81.56651 7469 ft 269 kts 329°
2026-04-16 00:07 29.89990 -81.57763 7236 ft 262 kts 329°
2026-04-16 00:08 29.91537 -81.58854 6971 ft 255 kts 329°
2026-04-16 00:08 29.93022 -81.59906 6725 ft 250 kts 329°
2026-04-16 00:08 29.94495 -81.60949 6480 ft 246 kts 329°
2026-04-16 00:08 29.95957 -81.61983 6221 ft 243 kts 329°
2026-04-16 00:09 29.97388 -81.62997 5971 ft 240 kts 329°
2026-04-16 00:09 29.98798 -81.63998 5729 ft 238 kts 329°
2026-04-16 00:09 30.00226 -81.65011 5480 ft 237 kts 328°
2026-04-16 00:09 30.01621 -81.65997 5235 ft 235 kts 328°
2026-04-16 00:10 30.03020 -81.66985 4992 ft 234 kts 328°
2026-04-16 00:10 30.04401 -81.67962 4752 ft 233 kts 328°
2026-04-16 00:10 30.05780 -81.68940 4505 ft 232 kts 328°
2026-04-16 00:10 30.07150 -81.69915 4261 ft 231 kts 328°
2026-04-16 00:11 30.08532 -81.70897 4016 ft 231 kts 328°
2026-04-16 00:11 30.09903 -81.71872 3775 ft 230 kts 328°
2026-04-16 00:11 30.11250 -81.72830 3668 ft 223 kts 328°
2026-04-16 00:11 30.12546 -81.73756 3655 ft 213 kts 328°
2026-04-16 00:12 30.13792 -81.74642 3650 ft 205 kts 328°
2026-04-16 00:12 30.14991 -81.75497 3646 ft 197 kts 328°
2026-04-16 00:12 30.16134 -81.76311 3645 ft 191 kts 329°
2026-04-16 00:12 30.17254 -81.77110 3648 ft 186 kts 329°
2026-04-16 00:13 30.18346 -81.77889 3648 ft 181 kts 328°
2026-04-16 00:13 30.19406 -81.78643 3650 ft 177 kts 328°
2026-04-16 00:13 30.20450 -81.79389 3648 ft 175 kts 328°
2026-04-16 00:13 30.21491 -81.80133 3652 ft 175 kts 327°
2026-04-16 00:14 30.22537 -81.80879 3650 ft 176 kts 327°
2026-04-16 00:14 30.23581 -81.81625 3646 ft 176 kts 327°
2026-04-16 00:14 30.24622 -81.82368 3649 ft 177 kts 327°
2026-04-16 00:14 30.25671 -81.83118 3653 ft 177 kts 327°
2026-04-16 00:15 30.26747 -81.83888 3518 ft 185 kts 327°
2026-04-16 00:15 30.27869 -81.84688 3377 ft 192 kts 328°
2026-04-16 00:15 30.29031 -81.85519 3232 ft 197 kts 328°
2026-04-16 00:15 30.30215 -81.86364 3090 ft 201 kts 328°
2026-04-16 00:16 30.31407 -81.87213 2947 ft 205 kts 328°
2026-04-16 00:16 30.32639 -81.88095 2799 ft 207 kts 328°
2026-04-16 00:16 30.33884 -81.88918 2633 ft 207 kts 341°
2026-04-16 00:16 30.35313 -81.89060 2495 ft 204 kts
2026-04-16 00:17 30.36731 -81.89024 2349 ft 204 kts
2026-04-16 00:17 30.38161 -81.88981 2204 ft 204 kts
2026-04-16 00:17 30.39549 -81.88941 2150 ft 198 kts
2026-04-16 00:17 30.40902 -81.88905 2142 ft 189 kts
2026-04-16 00:18 30.42198 -81.88871 2139 ft 180 kts
2026-04-16 00:18 30.43383 -81.88632 2125 ft 166 kts 35°
2026-04-16 00:18 30.44003 -81.87753 2355 ft 137 kts 63°
2026-04-16 00:18 30.44412 -81.86721 2172 ft 139 kts 70°
2026-04-16 00:19 30.44752 -81.85707 2151 ft 131 kts 71°
2026-04-16 00:19 30.45063 -81.84753 2142 ft 125 kts 71°
2026-04-16 00:19 30.45365 -81.83815 2140 ft 120 kts 72°
2026-04-16 00:19 30.45648 -81.82928 2142 ft 116 kts 72°
2026-04-16 00:20 30.45924 -81.82056 2124 ft 115 kts 72°
2026-04-16 00:20 30.46200 -81.81171 2061 ft 117 kts 72°
2026-04-16 00:20 30.46477 -81.80290 2047 ft 115 kts 72°
2026-04-16 00:20 30.46748 -81.79424 2043 ft 112 kts 72°
2026-04-16 00:21 30.47010 -81.78590 2026 ft 108 kts 72°
2026-04-16 00:21 30.47262 -81.77780 1762 ft 104 kts 76°
2026-04-16 00:21 30.47480 -81.77022 1473 ft 100 kts 68°
2026-04-16 00:21 30.47728 -81.76253 1310 ft 107 kts 69°
2026-04-16 00:22 30.48001 -81.75420 1086 ft 110 kts 75°
2026-04-16 00:22 30.48242 -81.74611 925 ft 102 kts 73°
2026-04-16 00:22 30.48472 -81.73843 733 ft 99 kts 73°
2026-04-16 00:22 30.48689 -81.73096 563 ft 96 kts 72°
2026-04-16 00:23 30.48918 -81.72360 473 ft 96 kts 71°
2026-04-16 00:23 30.49143 -81.71619 351 ft 100 kts 73°
2026-04-16 00:23 30.49373 -81.70841 241 ft 102 kts 69°
2026-04-16 00:23 30.49608 -81.70062 77 ft 100 kts 72°
2026-04-16 00:24 30.49810 -81.69382 23 ft 73 kts 68°
2026-04-16 00:24 30.49929 -81.68993 23 ft 33 kts 66°
2026-04-16 00:24 30.49992 -81.68787 23 ft 26 kts 74°
2026-04-16 00:24 30.50029 -81.68626 23 ft 19 kts 85°
2026-04-16 00:25 30.50013 -81.68507 23 ft 11 kts 112°
2026-04-16 00:25 30.49959 -81.68431 23 ft 14 kts 135°
2026-04-16 00:25 30.49967 -81.68297 23 ft 20 kts 73°
2026-04-16 00:25 30.50022 -81.68121 23 ft 23 kts 69°
2026-04-16 00:26 30.50050 -81.68014 23 ft 10 kts 89°
2026-04-16 00:26 30.49976 -81.67950 23 ft 17 kts 161°
2026-04-16 00:26 30.49851 -81.67902 23 ft 17 kts 166°
2026-04-16 00:26 30.49711 -81.67911 23 ft 17 kts 185°
2026-04-16 00:27 30.49653 -81.67847 23 ft 11 kts 100°
2026-04-16 00:27 30.49649 -81.67821 23 ft 0 kts 98°